Flag for Honduras Weather past 2 weeks in Tegucigalpa, Honduras

Now
70 °F

Partly sunny.


Feels Like: 70 °F
Forecast: N/A
Wind: 18 mph from North

Location: Tegucigalpa Airport

Current Time: Jan 26, 2015 at 3:14:00 PM

Latest Report: Jan 26, 2015 at 2:00 PM


Visibility: N/A

Pressure: 30.12 "Hg

Humidity: 69%

Dew point: 59 °F

Location of TegucigalpaLocation

Historic Weather in Tegucigalpa — Graph

°F

Tegucigalpa temperature yesterday

Maximum temperature yesterday: 72 °F (at 2:00 PM)
Minimum temperature yesterday: 61 °F (at 8:00 PM)
Average temperature yesterday: 65 °F

Past Weeks' High & Low Weather Summary

 TemperatureHumidityPressure
High86 °F (Jan 23, 2:00 PM)100% (Jan 12, 2:00 AM)30.24 "Hg (Jan 12, 2:00 AM)
Low55 °F (Jan 20, 1:00 AM)35% (Jan 21, 3:00 PM)30.01 "Hg (Jan 20, 4:00 PM)
Average69 °F77%30.12 "Hg
* Reported Jan 11 2:00 PM — Jan 26 2:00 PM, Tegucigalpa, Weather by CustomWeather, © 2014

Note: Actual official high and low records may vary slightly from our data, if they occured in-between our weather recording intervals... More about our weather records

Advertising

Tegucigalpa weather history for previous 24 hours

 ConditionsComfort  
Time TempWeatherWind HumidityBarometerVisibility
2:00 PM
Jan 26
70 °FPartly sunny.18 mph69%30.12 "HgN/A
1:00 PM73 °FPartly sunny.21 mph61%30.15 "HgN/A
12:00 PM73 °FPartly sunny.21 mph57%30.15 "HgN/A
11:00 AM72 °FPartly sunny.23 mph61%30.18 "HgN/A
10:00 AM72 °FPartly sunny.18 mph69%30.21 "HgN/A
9:00 AM63 °FPartly sunny.12 mph83%30.21 "HgN/A
8:00 AM63 °FPartly sunny.12 mph88%30.18 "HgN/A
7:00 AM59 °FPartly sunny.12 mph94%30.18 "Hg5 mi
6:00 AM59 °FScattered showers. Passing clouds.12 mph94%30.15 "Hg5 mi
5:00 AM59 °FScattered showers. Passing clouds.14 mph94%30.15 "Hg5 mi
4:00 AM59 °FScattered showers. Passing clouds.8 mph94%30.15 "Hg4 mi
3:00 AM59 °FScattered showers. Passing clouds.12 mph94%30.12 "Hg5 mi
2:00 AM59 °FPassing clouds.6 mph94%30.12 "Hg5 mi
1:00 AM59 °FScattered showers. Passing clouds.12 mph100%30.12 "Hg5 mi
12:00 AM59 °FPassing clouds.12 mph100%30.15 "Hg4 mi
11:00 PM
Jan 25
61 °FScattered showers. Passing clouds.9 mph94%30.12 "Hg4 mi
10:00 PM61 °FScattered showers. Passing clouds.10 mph100%30.15 "Hg5 mi
9:00 PM61 °FPassing clouds.12 mph100%30.12 "Hg4 mi
8:00 PM61 °FPassing clouds.12 mph100%30.09 "Hg4 mi
7:00 PM63 °FScattered showers. Passing clouds.12 mph94%30.09 "Hg4 mi
6:00 PM63 °FScattered showers. Passing clouds.14 mph94%30.07 "Hg4 mi
5:00 PM64 °FScattered showers. Partly sunny.12 mph94%30.07 "Hg4 mi
4:00 PM66 °FPartly sunny.14 mph88%30.04 "HgN/A
3:00 PM72 °FPartly sunny.16 mph78%30.04 "HgN/A
Weather by CustomWeather, © 2014

See weather overviewHow to use our weather pages